| time (UTC) | temp F | wind direction | speed MPH | gust MPH | rain 1hr in | rain 24hr in | rain mn in | humidity % | barometer mb |
| 20260505101744 | 53 | 170 | 3.0 | 8.0 | 0.00 | 0.00 | 0.00 | 90 | 1017.2 |
| 20260505100844 | 53 | 177 | 2.0 | 5.0 | 0.00 | 0.00 | 0.00 | 90 | 1017.0 |
| 20260505095044 | 53 | 163 | 3.0 | 6.0 | 0.00 | 0.00 | 0.00 | 90 | 1016.9 |
| 20260505094144 | 53 | 177 | 3.0 | 6.0 | 0.00 | 0.00 | 0.00 | 90 | 1016.9 |
| 20260505093244 | 53 | 168 | 3.0 | 8.0 | 0.00 | 0.00 | 0.00 | 89 | 1016.9 |
| 20260505092344 | 53 | 182 | 3.0 | 7.0 | 0.00 | 0.00 | 0.00 | 89 | 1017.0 |
| 20260505091443 | 54 | 179 | 4.0 | 10.0 | 0.00 | 0.00 | 0.00 | 89 | 1016.8 |
| 20260505090543 | 53 | 181 | 4.0 | 9.0 | 0.00 | 0.00 | 0.00 | 89 | 1016.9 |
| 20260505085645 | 54 | 176 | 4.0 | 12.0 | 0.00 | 0.00 | 0.00 | 89 | 1017.0 |
| 20260505084744 | 54 | 194 | 4.0 | 13.0 | 0.00 | 0.00 | 0.00 | 89 | 1017.0 |
| 20260505083844 | 54 | 178 | 5.0 | 11.0 | 0.00 | 0.00 | 0.00 | 89 | 1016.9 |
| 20260505082943 | 54 | 183 | 5.0 | 11.0 | 0.00 | 0.00 | 0.00 | 89 | 1016.9 |
| 20260505082043 | 54 | 189 | 5.0 | 13.0 | 0.00 | 0.00 | 0.00 | 88 | 1017.0 |
| 20260505080243 | 54 | 193 | 4.0 | 10.0 | 0.00 | 0.00 | 0.00 | 88 | 1016.9 |
| 20260505075343 | 54 | 192 | 5.0 | 14.0 | 0.00 | 0.00 | 0.00 | 87 | 1017.0 |
| 20260505074444 | 54 | 192 | 4.0 | 14.0 | 0.00 | 0.00 | 0.00 | 87 | 1017.0 |
| 20260505073544 | 54 | 189 | 5.0 | 12.0 | 0.00 | 0.00 | 0.00 | 87 | 1017.0 |
| 20260505072644 | 54 | 197 | 5.0 | 10.0 | 0.00 | 0.00 | 0.00 | 87 | 1017.0 |
| 20260505071743 | 54 | 193 | 3.0 | 10.0 | 0.00 | 0.00 | 0.00 | 87 | 1017.0 |
| 20260505070843 | 54 | 185 | 4.0 | 9.0 | 0.00 | 0.00 | 0.00 | 87 | 1017.0 |
| 20260505065944 | 54 | 187 | 4.0 | 11.0 | 0.00 | 0.00 | 0.00 | 87 | 1017.0 |
| 20260505065044 | 54 | 182 | 5.0 | 12.0 | 0.00 | 0.00 | 0.00 | 87 | 1017.1 |
| 20260505064144 | 54 | 183 | 5.0 | 11.0 | 0.00 | 0.00 | 0.00 | 86 | 1017.0 |
| 20260505063243 | 54 | 187 | 4.0 | 12.0 | 0.00 | 0.00 | 0.00 | 86 | 1017.0 |
| 20260505062344 | 54 | 187 | 5.0 | 12.0 | 0.00 | 0.00 | 0.00 | 86 | 1017.1 |
| 20260505061443 | 55 | 192 | 5.0 | 12.0 | 0.00 | 0.00 | 0.00 | 86 | 1017.2 |
| 20260505060543 | 55 | 190 | 5.0 | 12.0 | 0.00 | 0.00 | 0.00 | 86 | 1017.3 |
| 20260505055644 | 55 | 190 | 5.0 | 11.0 | 0.00 | 0.00 | 0.00 | 86 | 1017.3 |
| 20260505052943 | 55 | 182 | 4.0 | 12.0 | 0.00 | 0.00 | 0.00 | 85 | 1017.4 |
| 20260505052043 | 55 | 187 | 4.0 | 10.0 | 0.00 | 0.00 | 0.00 | 85 | 1017.4 |
| 20260505050244 | 55 | 186 | 4.0 | 10.0 | 0.00 | 0.00 | 0.00 | 83 | 1017.6 |
| 20260505041743 | 55 | 173 | 4.0 | 8.0 | 0.00 | 0.00 | 0.00 | 81 | 1017.9 |
| 20260505040844 | 56 | 175 | 3.0 | 7.0 | 0.00 | 0.00 | 0.00 | 80 | 1017.9 |
| 20260505035943 | 56 | 186 | 4.0 | 9.0 | 0.00 | 0.00 | 0.00 | 79 | 1017.8 |
| 20260505035043 | 56 | 196 | 4.0 | 10.0 | 0.00 | 0.00 | 0.00 | 78 | 1017.8 |
| 20260505034142 | 56 | 213 | 4.0 | 8.0 | 0.00 | 0.00 | 0.00 | 78 | 1017.8 |
| 20260505033242 | 56 | 205 | 3.0 | 14.0 | 0.00 | 0.00 | 0.00 | 78 | 1017.8 |
| 20260505032343 | 56 | 192 | 3.0 | 8.0 | 0.00 | 0.00 | 0.00 | 78 | 1017.8 |
| 20260505030542 | 56 | 210 | 4.0 | 9.0 | 0.00 | 0.00 | 0.00 | 78 | 1018.0 |
| 20260505025642 | 56 | 212 | 3.0 | 10.0 | 0.00 | 0.00 | 0.00 | 77 | 1017.9 |
| 20260505024743 | 56 | 206 | 4.0 | 8.0 | 0.00 | 0.00 | 0.00 | 77 | 1017.9 |
| 20260505023842 | 56 | 212 | 4.0 | 8.0 | 0.00 | 0.00 | 0.00 | 76 | 1017.9 |
| 20260505022942 | 56 | 217 | 5.0 | 11.0 | 0.00 | 0.00 | 0.00 | 76 | 1017.9 |
| 20260505022043 | 56 | 217 | 5.0 | 10.0 | 0.00 | 0.00 | 0.00 | 75 | 1018.0 |
| 20260505021142 | 56 | 223 | 4.0 | 10.0 | 0.00 | 0.00 | 0.00 | 75 | 1018.0 |
| 20260505020242 | 56 | 217 | 5.0 | 11.0 | 0.00 | 0.00 | 0.00 | 75 | 1018.0 |
| 20260505015342 | 56 | 216 | 5.0 | 12.0 | 0.00 | 0.00 | 0.00 | 75 | 1018.0 |
| 20260505014442 | 56 | 208 | 5.0 | 10.0 | 0.00 | 0.00 | 0.00 | 75 | 1018.0 |
| 20260505013543 | 56 | 218 | 5.0 | 11.0 | 0.00 | 0.00 | 0.00 | 74 | 1018.0 |
| 20260505011742 | 57 | 218 | 6.0 | 12.0 | 0.00 | 0.00 | 0.00 | 73 | 1017.8 |
| 20260505010843 | 57 | 215 | 6.0 | 13.0 | 0.00 | 0.00 | 0.00 | 72 | 1017.6 |
| 20260505005942 | 57 | 222 | 5.0 | 13.0 | 0.00 | 0.00 | 0.00 | 72 | 1017.6 |
| 20260505004142 | 56 | 212 | 7.0 | 16.0 | 0.00 | 0.00 | 0.00 | 72 | 1017.3 |
| 20260505003242 | 56 | 206 | 6.0 | 13.0 | 0.00 | 0.00 | 0.00 | 74 | 1017.2 |
| 20260505002342 | 56 | 202 | 5.0 | 11.0 | 0.00 | 0.00 | 0.00 | 75 | 1017.1 |
| 20260505001442 | 56 | 195 | 6.0 | 14.0 | 0.00 | 0.00 | 0.00 | 76 | 1017.0 |
| 20260504235641 | 56 | 184 | 5.0 | 16.0 | 0.00 | 0.00 | 0.00 | 75 | 1016.7 |
| 20260504234742 | 56 | 195 | 6.0 | 14.0 | 0.00 | 0.00 | 0.00 | 73 | 1016.7 |
| 20260504233842 | 57 | 200 | 8.0 | 15.0 | 0.00 | 0.00 | 0.00 | 71 | 1016.7 |
| 20260504232942 | 57 | 206 | 8.0 | 17.0 | 0.00 | 0.00 | 0.00 | 70 | 1016.6 |
| 20260504232042 | 58 | 206 | 9.0 | 20.0 | 0.00 | 0.00 | 0.00 | 69 | 1016.6 |
| 20260504231142 | 58 | 209 | 9.0 | 23.0 | 0.00 | 0.00 | 0.00 | 68 | 1016.5 |
| 20260504230241 | 58 | 205 | 9.0 | 18.0 | 0.00 | 0.00 | 0.00 | 67 | 1016.3 |
| 20260504225342 | 59 | 205 | 9.0 | 20.0 | 0.00 | 0.00 | 0.00 | 67 | 1016.4 |
| 20260504224441 | 60 | 197 | 8.0 | 19.0 | 0.00 | 0.00 | 0.00 | 65 | 1016.4 |
| 20260504223541 | 60 | 208 | 9.0 | 18.0 | 0.00 | 0.00 | 0.00 | 64 | 1016.4 |
| 20260504222641 | 60 | 208 | 9.0 | 20.0 | 0.00 | 0.00 | 0.00 | 64 | 1016.4 |
| 20260504221742 | 60 | 215 | 10.0 | 21.0 | 0.00 | 0.00 | 0.00 | 62 | 1016.5 |
| 20260504220841 | 61 | 213 | 9.0 | 17.0 | 0.00 | 0.00 | 0.00 | 61 | 1016.6 |
| 20260504215941 | 61 | 206 | 8.0 | 18.0 | 0.00 | 0.00 | 0.00 | 61 | 1016.7 |
| 20260504215041 | 61 | 215 | 9.0 | 19.0 | 0.00 | 0.00 | 0.00 | 61 | 1016.7 |
| 20260504214141 | 61 | 205 | 10.0 | 22.0 | 0.00 | 0.00 | 0.00 | 60 | 1016.8 |
| 20260504213242 | 62 | 209 | 10.0 | 19.0 | 0.00 | 0.00 | 0.00 | 58 | 1016.8 |
| 20260504212341 | 62 | 203 | 8.0 | 19.0 | 0.00 | 0.00 | 0.00 | 57 | 1016.7 |
| 20260504211443 | 62 | 210 | 8.0 | 17.0 | 0.00 | 0.00 | 0.00 | 57 | 1016.7 |
| 20260504210541 | 62 | 199 | 9.0 | 16.0 | 0.00 | 0.00 | 0.00 | 58 | 1016.7 |
| 20260504205641 | 63 | 193 | 8.0 | 19.0 | 0.00 | 0.00 | 0.00 | 57 | 1016.9 |
| 20260504204741 | 63 | 198 | 9.0 | 18.0 | 0.00 | 0.00 | 0.00 | 57 | 1016.8 |
| 20260504203841 | 63 | 211 | 9.0 | 19.0 | 0.00 | 0.00 | 0.00 | 56 | 1016.8 |
| 20260504202941 | 63 | 208 | 10.0 | 23.0 | 0.00 | 0.00 | 0.00 | 55 | 1016.7 |
| 20260504202042 | 64 | 208 | 10.0 | 21.0 | 0.00 | 0.00 | 0.00 | 54 | 1016.7 |
| 20260504201140 | 64 | 202 | 9.0 | 20.0 | 0.00 | 0.00 | 0.00 | 53 | 1016.7 |
| 20260504200241 | 64 | 218 | 9.0 | 18.0 | 0.00 | 0.00 | 0.00 | 54 | 1016.8 |
| 20260504195340 | 64 | 223 | 12.0 | 23.0 | 0.00 | 0.00 | 0.00 | 54 | 1016.9 |
| 20260504194440 | 64 | 202 | 10.0 | 23.0 | 0.00 | 0.00 | 0.00 | 51 | 1017.0 |
| 20260504192641 | 65 | 211 | 10.0 | 18.0 | 0.00 | 0.00 | 0.00 | 50 | 1017.0 |
| 20260504191741 | 65 | 191 | 10.0 | 20.0 | 0.00 | 0.00 | 0.00 | 51 | 1016.9 |
| 20260504190841 | 65 | 195 | 10.0 | 22.0 | 0.00 | 0.00 | 0.00 | 50 | 1017.1 |
| 20260504185040 | 66 | 210 | 7.0 | 18.0 | 0.00 | 0.00 | 0.00 | 49 | 1017.3 |
| 20260504184140 | 65 | 228 | 7.0 | 20.0 | 0.00 | 0.00 | 0.00 | 51 | 1017.3 |
| 20260504183241 | 65 | 201 | 7.0 | 14.0 | 0.00 | 0.00 | 0.00 | 49 | 1017.3 |
| 20260504182340 | 65 | 210 | 8.0 | 15.0 | 0.00 | 0.00 | 0.00 | 51 | 1017.5 |
| 20260504180541 | 65 | 213 | 8.0 | 16.0 | 0.00 | 0.00 | 0.00 | 51 | 1017.7 |
| 20260504175640 | 64 | 210 | 8.0 | 17.0 | 0.00 | 0.00 | 0.00 | 50 | 1017.9 |
| 20260504174740 | 65 | 206 | 7.0 | 15.0 | 0.00 | 0.00 | 0.00 | 51 | 1017.9 |
| 20260504173840 | 65 | 220 | 9.0 | 17.0 | 0.00 | 0.00 | 0.00 | 49 | 1017.9 |
| 20260504172940 | 64 | 216 | 9.0 | 21.0 | 0.00 | 0.00 | 0.00 | 47 | 1017.9 |
| 20260504172041 | 64 | 221 | 10.0 | 22.0 | 0.00 | 0.00 | 0.00 | 47 | 1018.0 |
| 20260504171141 | 64 | 211 | 11.0 | 22.0 | 0.00 | 0.00 | 0.00 | 44 | 1018.2 |
| 20260504170240 | 65 | 211 | 9.0 | 19.0 | 0.00 | 0.00 | 0.00 | 44 | 1018.2 |
| 20260504150540 | 64 | 243 | 9.0 | 20.0 | 0.00 | 0.00 | 0.00 | 42 | 1019.4 |
| 20260504141140 | 62 | 234 | 7.0 | 14.0 | 0.00 | 0.00 | 0.00 | 45 | 1019.6 |
| 20260504140239 | 62 | 225 | 5.0 | 12.0 | 0.00 | 0.00 | 0.00 | 48 | 1019.6 |
| 20260504110239 | 51 | 235 | 5.0 | 14.0 | 0.00 | 0.00 | 0.00 | 59 | 1020.6 |